Home   Weather   Waldkraiburg   Past weeks

Flag for Germany Past Weather in Waldkraiburg, Bavaria, Germany — Yesterday and Last 2 Weeks

Now
52 °F

Clear.


Feels Like: 52 °F
Forecast: 49 / 71 °F
Wind: 2 mph from North

Location: Munich / Franz Josef Strauss Airport

Current Time: Sep 30, 2016 at 2:02:25 AM

Latest Report: Sep 30, 2016 at 1:20 AM


Visibility: 10 mi

Pressure: 30.09 "Hg

Humidity: 88%

Dew Point: 48 °F

Location of WaldkraiburgLocation

Past Weather in Waldkraiburg — Graph

°F

Waldkraiburg Temperature Yesterday

Maximum temperature yesterday: 75 °F (at 3:50 PM)
Minimum temperature yesterday: 48 °F (at 4:20 AM)
Average temperature yesterday: 61 °F

High & Low Weather Summary for the Past Weeks

 TemperatureHumidityPressure
High82 °F (Sep 15, 2:50 PM)100% (Sep 15, 5:50 AM)30.42 "Hg (Sep 15, 5:50 AM)
Low37 °F (Sep 21, 5:50 AM)30% (Sep 15, 4:50 PM)29.86 "Hg (Sep 15, 2:50 PM)
Average56 °F85%30.12 "Hg
* Reported Sep 15 12:20 AM — Sep 30 12:50 AM, Waldkraiburg, Weather by CustomWeather, © 2016

Note: Actual official high and low records may vary slightly from our data, if they occured in-between our weather recording intervals... More about our weather records

Advertising

Waldkraiburg Weather History for the Previous 24 Hours

Scroll right to see more
 ConditionsComfort  
Time TempWeatherWind HumidityBarometerVisibility
12:50 AM
Fri, Sep 30
54 °FClear.2 mph82%30.09 "Hg10 mi
12:20 AM54 °FClear.2 mph82%30.09 "Hg10 mi
11:50 PM
Thu, Sep 29
57 °FClear.3 mph67%30.09 "Hg10 mi
11:20 PM61 °FClear.3 mph63%30.09 "Hg10 mi
10:50 PM61 °FClear.6 mph63%30.09 "Hg10 mi
10:20 PM61 °FClear.7 mph63%30.09 "Hg10 mi
9:50 PM63 °FClear.7 mph59%30.09 "Hg10 mi
9:20 PM63 °FClear.9 mph59%30.09 "Hg10 mi
8:50 PM61 °FClear.7 mph63%30.09 "Hg10 mi
8:20 PM64 °FClear.12 mph52%30.09 "Hg10 mi
7:50 PM63 °FClear.9 mph56%30.09 "Hg10 mi
7:20 PM64 °FPassing clouds.5 mph52%30.09 "HgN/A
6:50 PM68 °FSunny.6 mph49%30.09 "Hg10 mi
6:20 PM70 °FSunny.7 mph46%30.09 "Hg10 mi
5:50 PM72 °FSunny.12 mph44%30.09 "Hg10 mi
5:20 PM73 °FSunny.9 mph33%30.12 "Hg10 mi
4:50 PM75 °FSunny.13 mph39%30.12 "Hg10 mi
4:20 PM75 °FSunny.13 mph36%30.12 "Hg10 mi
3:50 PM75 °FPassing clouds.12 mph39%30.12 "HgN/A
3:20 PM73 °FPassing clouds.12 mph47%30.15 "HgN/A
2:50 PM73 °FPassing clouds.10 mph47%30.15 "HgN/A
2:20 PM73 °FPassing clouds.8 mph47%30.18 "HgN/A
1:50 PM73 °FPassing clouds.8 mph47%30.18 "HgN/A
1:20 PM72 °FSunny.9 mph53%30.21 "Hg10 mi
12:50 PM72 °FPassing clouds.7 mph53%30.24 "HgN/A
12:20 PM70 °FSunny.9 mph50%30.24 "Hg10 mi
11:50 AM70 °FPassing clouds.7 mph50%30.24 "HgN/A
11:20 AM68 °FSunny.7 mph56%30.27 "Hg10 mi
10:50 AM66 °FPassing clouds.8 mph64%30.27 "HgN/A
10:20 AM64 °FPassing clouds.7 mph68%30.30 "HgN/A
9:50 AM61 °FPassing clouds.6 mph77%30.30 "HgN/A
9:20 AM59 °FPassing clouds.5 mph77%30.30 "HgN/A
8:50 AM55 °FPassing clouds.6 mph88%30.30 "HgN/A
8:20 AM52 °FSunny.No wind100%30.30 "Hg10 mi
7:50 AM50 °FFog.No wind100%30.30 "HgN/A
7:20 AM50 °FFog.2 mph100%30.30 "HgN/A
6:50 AM50 °FFog.6 mph100%30.30 "HgN/A
6:20 AM48 °FFog.5 mph100%30.30 "HgN/A
5:50 AM48 °FFog.5 mph100%30.30 "HgN/A
5:20 AM48 °FFog.3 mph100%30.33 "HgN/A
4:50 AM48 °FFog.2 mph100%30.33 "HgN/A
4:20 AM48 °FFog.3 mph100%30.33 "HgN/A
3:50 AM50 °FFog.2 mph100%30.33 "HgN/A
3:20 AM52 °FClear.3 mph94%30.33 "Hg10 mi
2:50 AM52 °FClear.1 mph100%30.36 "Hg10 mi
2:20 AM54 °FClear.6 mph94%30.36 "Hg10 mi
Weather by CustomWeather, © 2016

See weather overviewHow to use our weather pages